Вернуться в каталог

DELTA 1 DEB

АктивенSSO
NORAD 21433·DEBRIS·🇺🇸 United States

Запущен Jun 12, 1975 с Vandenberg Space Force Base

Loading…

Ближайшие Пролёты (ближайшие 24 часа)

TLE

СвежийSource: Space-Track

Эпоха: Sep 14, 2026, 10:06 UTC

1 21433U 75052DR  26257.42133567  .00000108  00000-0  23529-3 0  9998
2 21433  99.7511  57.8931 0058944  21.9913   6.9409 13.50364216740151

Отслеживайте DELTA 1 DEB в реальном времени с AllMySat

Download on the App Store